Hourly Data Report for October 04, 2017

All times are specified in Local Standard Time (LST). Add 1 hour to adjust for Daylight Saving Time where and when it is observed.

SECHELT AUT
BRITISH COLUMBIA

49°27'28.788" N
123°42'54.945" W
86.20 m
1047172
71638
VOU

Download Data

Hourly Data (October 2017)
Hourly Data Report for October 4, 2017
Temp Definition
°C
Dew Point Temp Definition
°C
Rel Hum Definition
%
Wind Dir Definition
10's deg

Wind Spd Definition
km/h
Visibility Definition
km
Stn Press Definition
kPa
Hmdx Definition


Wind Chill Definition


Weather Definition


TIME
00:00 6.4 3.3 81 0 1   101.30     LegendNANA
01:00 6.7 3.6 80 1 2   101.30     LegendNANA
02:00 5.3 3.2 86 35 3   101.29     LegendNANA
03:00 5.2 3.3 88 0 1   101.27     LegendNANA
04:00 5.2 3.2 87 32 1   101.22     LegendNANA
05:00 5.4 3.2 86 33 5   101.20     LegendNANA
06:00 4.7 2.9 88 0 1   101.17     LegendNANA
07:00 5.9 3.8 86   0   101.20     LegendNANA
08:00 10.3 6.4 77 5 1   101.19     LegendNANA
09:00 13.8 5.2 56   0   101.18     LegendNANA
10:00 14.0 5.4 56 22 3   101.19     LegendNANA
11:00 14.5 6.9 61 27 6   101.17     LegendNANA
12:00 15.5 6.4 55 20 3   101.13     LegendNANA
13:00 16.9 7.9 55 16 6   101.11     LegendNANA
14:00 16.3 5.2 48 16 6   101.11     LegendNANA
15:00 14.6 5.7 55 16 8   101.11     LegendNANA
16:00 15.8 3.6 44 17 5   101.08     LegendNANA
17:00 14.7 3.9 48 14 3   101.05     LegendNANA
18:00 10.9 6.8 76 33 3   101.05     LegendNANA
19:00 9.7 7.2 84 33 4   101.08     LegendNANA
20:00 9.1 6.3 83 32 5   101.08     LegendNANA
21:00 7.6 5.3 85 33 3   101.08     LegendNANA
22:00 6.9 4.2 83 34 3   101.10     LegendNANA
23:00 6.4 3.8 83 33 2   101.12     LegendNANA

Notes on Data Quality.

Legend

  • E = Estimated
  • M = Missing
  • NA = Not Available
  • ‡ = Partner data that is not subject to review by the National Climate Archives
Date modified: